GW5728 Weather Reports


Display with metric or nautical units.
time (UTC)temp
F
wind
direction
speed
MPH
gust
MPH
rain 1hr
in
rain 24hr
in
rain mn
in
humidity
%
barometer
mb
20260505052128 57 294 1.0 11.0 0.00 0.00 0.00 79 1096.6
20260505051628 58 309 1.0 11.0 0.00 0.00 0.00 78 1098.3
20260505051128 58 318 1.0 11.0 0.00 0.00 0.00 77 1097.0
20260505050628 59 319 1.0 11.0 0.00 0.00 0.00 76 1092.7
20260505050128 59 320 2.0 11.0 0.00 0.00 0.00 75 1080.7
20260505041558 61 256 1.0 11.0 0.00 0.00 0.00 71 1077.2
20260505040544 62 286 1.0 11.0 0.00 0.00 0.00 71 1069.5
20260505040044 62 274 0.0 11.0 0.00 0.00 0.00 70 1066.7
20260505035028 63 248 0.0 11.0 0.00 0.00 0.00 68 1066.2
20260505034528 64 357 0.0 11.0 0.00 0.00 0.00 67 1056.1
20260505034029 64 265 1.0 11.0 0.00 0.00 0.00 67 1067.2
20260505033528 64 220 3.0 11.0 0.00 0.00 0.00 67 1051.1
20260505033029 64 164 1.0 11.0 0.00 0.00 0.00 66 1043.7
20260505032013 65 94 2.0 11.0 0.00 0.00 0.00 65 1049.9
20260505031513 66 185 0.0 11.0 0.00 0.00 0.00 64 1050.2
20260505031014 66 211 0.0 11.0 0.00 0.00 0.00 64 1053.6
20260505030514 66 233 2.0 11.0 0.00 0.00 0.00 63 1047.3
20260505030013 67 116 1.0 11.0 0.00 0.00 0.00 62 1031.8
20260505025514 67 112 2.0 11.0 0.00 0.00 0.00 61 1036.8
20260505023944 68 274 1.0 11.0 0.00 0.00 0.00 60 1055.9
20260505022929 69 193 2.0 11.0 0.00 0.00 0.00 58 1055.6
20260505022429 70 165 1.0 11.0 0.00 0.00 0.00 57 1055.1
20260505021414 71 227 1.0 11.0 0.00 0.00 0.00 55 1060.0
20260505020914 72 246 2.0 11.0 0.00 0.00 0.00 54 1069.2
20260505015353 74 231 1.0 11.0 0.00 0.00 0.00 51 1062.7
20260505014853 74 305 0.0 11.0 0.00 0.00 0.00 50 1062.9
20260505014353 75 235 1.0 11.0 0.00 0.00 0.00 49 1068.4
20260505013853 75 239 2.0 11.0 0.00 0.00 0.00 48 1074.9
20260505013353 76 280 1.0 11.0 0.00 0.00 0.00 48 1073.4
20260505012853 77 284 1.0 11.0 0.00 0.00 0.00 49 1067.1
20260505012353 77 263 1.0 11.0 0.00 0.00 0.00 49 1060.5
20260505011853 77 146 2.0 11.0 0.00 0.00 0.00 47 1050.0
20260505011353 77 47 1.0 11.0 0.00 0.00 0.00 47 1061.1
20260505010338 78 294 1.0 11.0 0.00 0.00 0.00 49 1076.6
20260505005838 78 7 1.0 11.0 0.00 0.00 0.00 48 1061.8
20260505005338 78 290 1.0 11.0 0.00 0.00 0.00 49 1069.0
20260505004838 78 207 1.0 11.0 0.00 0.00 0.00 49 1060.8
20260505003823 79 168 1.0 11.0 0.00 0.00 0.00 51 1054.9
20260505003323 79 133 1.0 11.0 0.00 0.00 0.00 52 1059.7
20260505002308 79 304 1.0 11.0 0.00 0.00 0.00 54 1081.3
20260505001808 78 298 1.0 11.0 0.00 0.00 0.00 54 1085.5
20260505001308 78 279 1.0 11.0 0.00 0.00 0.00 54 1083.2
20260505000808 78 294 1.0 11.0 0.00 0.00 0.00 54 1075.5
20260505000308 79 288 2.0 11.0 0.00 0.00 0.00 53 1075.3
20260504235808 79 130 0.0 11.0 0.00 0.00 0.00 53 1071.6
20260504235308 79 315 1.0 11.0 0.00 0.00 0.00 52 1085.8
20260504234808 79 275 1.0 11.0 0.00 0.00 0.00 55 1078.9
20260504234308 79 324 1.0 11.0 0.00 0.00 0.00 56 1078.4
20260504233808 79 243 2.0 11.0 0.00 0.00 0.00 52 1070.1
20260504233308 79 267 1.0 11.0 0.00 0.00 0.00 54 1076.8
20260504232808 79 299 1.0 11.0 0.00 0.00 0.00 52 1075.7
20260504232308 79 295 1.0 11.0 0.00 0.00 0.00 53 1064.9
20260504231808 79 353 0.0 11.0 0.00 0.00 0.00 55 1072.8
20260504231308 79 0 1.0 11.0 0.00 0.00 0.00 55 1069.8
20260504230808 78 329 1.0 11.0 0.00 0.00 0.00 56 1086.7
20260504230308 78 326 2.0 11.0 0.00 0.00 0.00 54 1088.5
20260504225808 79 352 1.0 11.0 0.00 0.00 0.00 56 1075.9
20260504225308 78 333 1.0 11.0 0.00 0.00 0.00 55 1080.9
20260504224808 79 298 2.0 11.0 0.00 0.00 0.00 53 1078.4
20260504224308 79 274 1.0 11.0 0.00 0.00 0.00 52 1080.4
20260504223808 78 280 2.0 11.0 0.00 0.00 0.00 57 1082.1
20260504223308 78 287 2.0 11.0 0.00 0.00 0.00 55 1077.4
20260504221738 78 282 1.0 11.0 0.00 0.00 0.00 55 1072.4
20260504221238 78 292 1.0 11.0 0.00 0.00 0.00 52 1061.9
20260504220738 78 52 1.0 11.0 0.00 0.00 0.00 54 1052.7
20260504220238 78 283 0.0 11.0 0.00 0.00 0.00 56 1071.0
20260504215737 78 270 1.0 11.0 0.00 0.00 0.00 56 1067.8
20260504214722 77 339 0.0 11.0 0.00 0.00 0.00 55 1069.2
20260504214222 77 352 1.0 11.0 0.00 0.00 0.00 55 1080.3
20260504213722 77 301 1.0 11.0 0.00 0.00 0.00 56 1084.9
20260504213222 77 276 1.0 11.0 0.00 0.00 0.00 57 1082.2
20260504212723 76 299 1.0 11.0 0.00 0.00 0.00 55 1084.1
20260504212222 77 315 2.0 11.0 0.00 0.00 0.00 56 1080.1
20260504211722 77 316 1.0 11.0 0.00 0.00 0.00 59 1077.1
20260504211222 76 325 1.0 11.0 0.00 0.00 0.00 58 1070.8
20260504210722 76 311 1.0 11.0 0.00 0.00 0.00 56 1070.7
20260504210221 76 193 2.0 11.0 0.00 0.00 0.00 54 1067.5
20260504205721 76 314 1.0 11.0 0.00 0.00 0.00 57 1069.8
20260504205221 76 326 1.0 11.0 0.00 0.00 0.00 56 1067.4
20260504204721 76 243 1.0 11.0 0.00 0.00 0.00 59 1059.7
20260504204222 76 269 1.0 11.0 0.00 0.00 0.00 56 1058.9
20260504203721 75 106 0.0 11.0 0.00 0.00 0.00 58 1058.8
20260504203221 76 266 2.0 11.0 0.00 0.00 0.00 56 1069.8
20260504202721 76 314 0.0 11.0 0.00 0.00 0.00 59 1066.3
20260504202222 75 117 1.0 11.0 0.00 0.00 0.00 57 1047.6
20260504201722 75 298 1.0 11.0 0.00 0.00 0.00 59 1060.1
20260504201221 74 155 1.0 11.0 0.00 0.00 0.00 57 1064.0
20260504200721 74 113 1.0 11.0 0.00 0.00 0.00 59 1061.4
20260504200222 74 264 0.0 11.0 0.00 0.00 0.00 57 1053.1
20260504195721 74 203 1.0 11.0 0.00 0.00 0.00 61 1056.2
20260504194706 74 317 1.0 11.0 0.00 0.00 0.00 56 1055.4
20260504194206 74 245 1.0 11.0 0.00 0.00 0.00 57 1046.1
20260504193151 73 126 1.0 11.0 0.00 0.00 0.00 58 1054.3
20260504192136 73 171 1.0 11.0 0.00 0.00 0.00 59 1049.7
20260504191636 73 276 1.0 11.0 0.00 0.00 0.00 56 1068.1
20260504191137 73 223 1.0 11.0 0.00 0.00 0.00 59 1057.9
20260504190637 73 226 1.0 11.0 0.00 0.00 0.00 59 1068.7
20260504185622 72 334 1.0 11.0 0.00 0.00 0.00 59 1083.9
20260504185122 72 236 1.0 11.0 0.00 0.00 0.00 58 1067.6
20260504184622 72 277 1.0 11.0 0.00 0.00 0.00 62 1077.9
20260504184122 72 270 1.0 11.0 0.00 0.00 0.00 59 1072.5
20260504183622 72 279 1.0 11.0 0.00 0.00 0.00 59 1071.4
20260504183122 71 229 0.0 11.0 0.00 0.00 0.00 66 1064.8
20260504182107 70 244 1.0 11.0 0.00 0.00 0.00 64 1078.9
20260504181607 70 250 0.0 11.0 0.00 0.00 0.00 61 1079.7
20260504181107 70 265 1.0 11.0 0.00 0.00 0.00 63 1078.5
20260504180607 70 224 1.0 11.0 0.00 0.00 0.00 65 1071.3
20260504180107 70 300 1.0 11.0 0.00 0.00 0.00 64 1083.9
20260504175052 69 320 1.0 11.0 0.00 0.00 0.00 65 1064.2
20260504174552 70 121 1.0 11.0 0.00 0.00 0.00 61 1047.3
20260504174052 70 224 1.0 11.0 0.00 0.00 0.00 62 1058.1
20260504173552 69 212 1.0 11.0 0.00 0.00 0.00 64 1042.6
20260504173052 69 110 1.0 11.0 0.00 0.00 0.00 65 1044.3
20260504172552 68 121 1.0 11.0 0.00 0.00 0.00 65 1051.2
20260504172052 68 276 0.0 11.0 0.00 0.00 0.00 64 1070.5
20260504171552 69 322 1.0 11.0 0.00 0.00 0.00 64 1063.5
20260504170537 68 108 0.0 11.0 0.00 0.00 0.00 67 1042.3
20260504150952 64 128 0.0 11.0 0.00 0.00 0.00 73 1038.9
20260504150452 63 168 0.0 11.0 0.00 0.00 0.00 74 1049.6
20260504140937 53 235 0.0 11.0 0.00 0.00 0.00 92 1069.1
20260504130323 49 185 0.0 11.0 0.00 0.00 0.00 92 1048.3
20260504120252 50 185 0.0 11.0 0.00 0.00 0.00 91 1048.3
20260504110237 52 185 0.0 11.0 0.00 0.00 0.00 90 1047.8
20260504100222 53 180 0.0 11.0 0.00 0.00 0.00 88 1046.2
20260504090121 55 180 0.0 11.0 0.00 0.00 0.00 85 1046.2
20260504081606 56 180 0.0 11.0 0.00 0.00 0.00 83 1046.3
20260504080551 57 180 0.0 11.0 0.00 0.00 0.00 82 1046.4